• Join FlightAware (Why Join?)
  • Login
  • US Flag GB Flag 
21:04 EST


 

Airport Tracker/Info


-or-


 

Live Flight TrackerFlight Track Log ✈ ASQ5610 ✈ 07-Apr-2013 ✈ KDFW - KCVG

Flight Track Log - Related Links

Times and Time Zones

All times are in EDT time to prevent confusion due to time zone crossing. See the ASQ5610 flight status page for this flight to view local times or setup timezone preferences in your user account.

Time Position Orientation Groundspeed Altitude Reporting Facility
EDT Latitude Longitude Course Direction KTS MPH feet Rate Location/Type
18:09 32.7667 -96.9667 59° Northeast 261 300 5,500  Level Dallas / Fort Worth TRACON
18:10 32.7667 -96.8667 90° East 307 353 7,700 2,400 Climbing Dallas / Fort Worth TRACON
18:11 32.8000 -96.7833 65° Northeast 324 373 10,400 1,860 Climbing Dallas / Fort Worth TRACON
18:13 33.0141 -96.4145 57° Northeast  Level FlightAware Approximate
18:13 32.9350 -96.5669 53° Northeast 376 433 13,800  Level Fort Worth Center
18:14 33.0759 -96.2983 59° Northeast  Level FlightAware Approximate
18:14 33.0072 -96.4572 52° Northeast 405 466 15,900  Level Fort Worth Center
18:15 33.0753 -96.3450 54° Northeast 418 481 17,800 2,100 Climbing Fort Worth Center
18:16 33.1178 -96.2131 69° East 423 487 20,200 2,040 Climbing Fort Worth Center
18:17 33.1583 -96.0783 70° East 423 487 22,000 1,800 Climbing Fort Worth Center
18:18 33.1944 -95.9539 71° East 428 493 23,900 1,740 Climbing Fort Worth Center
18:19 33.2344 -95.8189 70° East 428 493 25,500 1,320 Climbing Fort Worth Center
18:20 33.2767 -95.6817 70° East 434 499 26,500 1,020 Climbing Fort Worth Center
18:21 33.3203 -95.5242 72° East 439 505 27,600 1,020 Climbing Fort Worth Center
18:22 33.3597 -95.3742 72° East 450 518 28,600 960 Climbing Fort Worth Center
18:23 33.4050 -95.2214 70° East 470 541 29,600 960 Climbing Fort Worth Center
18:24 33.4525 -95.0683 70° East 476 548 30,600 960 Climbing Fort Worth Center
18:25 33.4953 -94.9100 72° East 487 560 31,600 960 Climbing Fort Worth Center
18:26 33.5400 -94.7569 71° East 487 560 32,600 960 Climbing Fort Worth Center
18:27 33.5825 -94.6008 72° East 487 560 33,600 960 Climbing Fort Worth Center
18:28 33.6292 -94.4447 70° East 487 560 34,600 660 Climbing Fort Worth Center
18:29 33.6675 -94.3039 72° East 487 560 35,000 180 Climbing Fort Worth Center
18:30 33.7219 -94.1519 67° East 487 560 35,000  Level Fort Worth Center
18:31 33.7975 -94.0042 58° Northeast 497 572 35,000  Level Fort Worth Center
18:31 33.8533 -93.9039 56° Northeast 498 573 35,000  Level Memphis Center
18:32 33.9156 -93.7664 61° Northeast 511 588 35,000  Level Memphis Center
18:33 33.9883 -93.6214 59° Northeast 511 588 35,000  Level Memphis Center
18:34 34.0608 -93.4711 60° Northeast 517 595 35,000  Level Memphis Center
18:35 34.1356 -93.3208 59° Northeast 517 595 35,000  Level Memphis Center
18:36 34.2078 -93.1725 59° Northeast 517 595 35,000  Level Memphis Center
18:37 34.2781 -93.0217 61° Northeast 517 595 35,000  Level Memphis Center
18:38 34.3500 -92.8628 61° Northeast 517 595 35,000  Level Memphis Center
18:39 34.4217 -92.7164 59° Northeast 518 596 35,000  Level Memphis Center
18:40 34.4933 -92.5672 60° Northeast 512 589 35,000  Level Memphis Center
18:41 34.5714 -92.4003 60° Northeast 518 596 35,000  Level Memphis Center
18:42 34.6467 -92.2506 59° Northeast 518 596 35,000  Level Memphis Center
18:43 34.7300 -92.1133 54° Northeast 518 596 35,000  Level Memphis Center
18:44 34.8278 -91.9864 47° Northeast 513 590 35,000  Level Memphis Center
18:45 34.9275 -91.8642 45° Northeast 503 579 35,000  Level Memphis Center
18:46 35.0228 -91.7392 47° Northeast 503 579 35,000  Level Memphis Center
18:47 35.1178 -91.6161 47° Northeast 498 573 35,000  Level Memphis Center
18:48 35.2150 -91.4906 47° Northeast 498 573 35,000  Level Memphis Center
18:49 35.3122 -91.3622 47° Northeast 498 573 35,000  Level Memphis Center
18:50 35.4089 -91.2386 46° Northeast 504 580 35,000  Level Memphis Center
18:51 35.4972 -91.1272 46° Northeast 499 574 35,000  Level Memphis Center
18:52 35.5961 -90.9978 47° Northeast 504 580 35,000  Level Memphis Center
18:53 35.6842 -90.8836 46° Northeast 499 574 35,000  Level Memphis Center
18:54 35.7847 -90.7461 48° Northeast 499 574 35,000  Level Memphis Center
18:55 35.8789 -90.6131 49° Northeast 499 574 35,000  Level Memphis Center
18:56 35.9772 -90.4853 46° Northeast 504 580 35,000  Level Memphis Center
18:57 36.0731 -90.3544 48° Northeast 504 580 35,000  Level Memphis Center
18:58 36.1731 -90.2233 47° Northeast 504 580 35,000  Level Memphis Center
18:59 36.2708 -90.0919 47° Northeast 509 586 35,000  Level Memphis Center
19:00 36.3686 -89.9600 47° Northeast 514 592 35,000  Level Memphis Center
19:01 36.4764 -89.8175 47° Northeast 514 592 35,000 -360 Level Memphis Center
19:02 36.5736 -89.6853 48° Northeast 514 592 34,300 -900 Descending Memphis Center
19:03 36.6708 -89.5497 48° Northeast 514 592 33,300 -660 Descending Memphis Center
19:04 36.7658 -89.4194 48° Northeast 514 592 33,000 -180 Descending Memphis Center
19:05 36.8606 -89.2861 48° Northeast 514 592 33,000  Level Memphis Center
19:06 36.9553 -89.1550 48° Northeast 514 592 33,000  Level Memphis Center
19:07 37.0517 -89.0208 48° Northeast 514 592 33,000  Level Memphis Center
19:08 37.1461 -88.8892 48° Northeast 514 592 33,000  Level Memphis Center
19:09 37.2425 -88.7544 48° Northeast 514 592 33,000  Level Memphis Center
19:10 37.3364 -88.6222 48° Northeast 514 592 33,000 -360 Level Memphis Center
19:11 37.4303 -88.4922 48° Northeast 514 592 32,300 -840 Descending Memphis Center
19:13 37.5608 -88.2936 50° Northeast 516 594 31,000 -540 Descending Indianapolis Center
19:14 37.6531 -88.1617 49° Northeast 519 597 31,000  Level Indianapolis Center
19:15 37.7497 -88.0225 49° Northeast 520 598 31,000  Level Indianapolis Center
19:16 37.8492 -87.8778 49° Northeast 525 604 31,000  Level Indianapolis Center
19:17 37.9383 -87.7300 53° Northeast 528 608 31,000 -120 Level Indianapolis Center
19:18 37.9939 -87.5575 68° East 532 612 30,800 -720 Descending Indianapolis Center
19:19 38.0592 -87.3508 68° East 527 606 29,600 -1,080 Descending Indianapolis Center
19:20 38.1117 -87.1844 68° East 514 592 28,600 -1,020 Descending Indianapolis Center
19:21 38.1617 -87.0222 69° East 505 581 27,600 -1,080 Descending Indianapolis Center
19:22 38.2114 -86.8639 68° East 494 568 26,500 -1,320 Descending Indianapolis Center
19:23 38.2617 -86.7011 68° East 498 573 24,900 -1,800 Descending Indianapolis Center
19:24 38.3236 -86.5022 68° East 503 579 22,800 -1,920 Descending Indianapolis Center
19:25 38.3733 -86.3406 69° East 493 567 21,000 -1,860 Descending Indianapolis Center
19:26 38.4225 -86.1817 68° East 482 555 19,000 -1,980 Descending Indianapolis Center
19:27 38.4700 -86.0289 68° East 465 535 17,000 -1,920 Descending Indianapolis Center
19:28 38.5161 -85.8800 68° East 452 520 15,100 -1,800 Descending Indianapolis Center
19:29 38.5586 -85.7367 69° East 431 496 13,400 -1,620 Descending Indianapolis Center
19:30 38.6042 -85.6061 66° East 406 467 11,800 -1,200 Descending Indianapolis Center
19:31 38.6658 -85.4717 60° Northeast 385 443 11,000 -420 Descending Indianapolis Center
19:32 38.7181 -85.3528 61° Northeast 381 438 11,000  Level Indianapolis Center
19:33 38.7667 -85.2383 61° Northeast 365 420 11,000  Level Indianapolis Center
19:35 38.8156 -85.1247 61° Northeast 361 415 11,000  Level Indianapolis Center
19:36 38.8753 -85.0164 55° Northeast 370 426 11,000 -300 Level Indianapolis Center
19:37 38.9386 -84.9119 52° Northeast 369 425 10,500 -780 Descending Indianapolis Center
19:38 39.0000 -84.8167 50° Northeast 288 331 9,500 -1,320 Descending Cincinnati TRACON
19:39 39.0500 -84.7167 57° Northeast 294 338 8,000 -1,560 Descending Cincinnati TRACON
19:40 39.0833 -84.6167 67° East 287 330 6,300 -1,740 Descending Cincinnati TRACON
19:40 39.1167 -84.5667 49° Northeast 267 307 4,900 -2,040 Descending Cincinnati TRACON
19:41 39.1383 -84.5661 North 285 328 4,100 -900 Descending Indianapolis Center
19:42 39.2094 -84.5456 13° North 284 327 3,700 -420 Descending Indianapolis Center
19:43 39.1833 -84.6500 252° West 173 199 3,000 -540 Descending Cincinnati TRACON
19:44 39.1333 -84.6667 194° South 175 201 2,300 -840 Descending Cincinnati TRACON
19:45 39.1000 -84.6667 180° South 141 162 1,400 -900 Descending Cincinnati TRACON
19:47 39.0488 -84.6678 223° Southwest  Level Estimated
19:54 39.0488 -84.6678 223° Southwest  Level Estimated